Regional Weather Roundup
Issued by NWS

Home | Current Version | Previous Version | Graphics & Text | Print | Product List | Glossary On
Versions: 1 2 3 4 5 6 7 8 9 10 11 12 13 14 15 16 17 18 19 20 21 22 23 24 25 26 27 28 29 30 31 32 33 34 35 36 37 38 39 40 41 42 43 44 45 46 47 48 49 50
000
ASUS43 KLMK 262210
RWRKY
NATIONAL WEATHER SERVICE LOUISVILLE KY
500 PM EST WED NOV 26 2014

NOTE "FAIR" INDICATES FEW OR NO CLOUDS BELOW 12,000 FEET
WITH NO SIGNIFICANT WEATHER AND/OR OBSTRUCTIONS TO VISIBILITY.

KYZ001>023-026-027-061>063-070>075-262300-
WESTERN AND SOUTH CENTRAL KENTUCKY

CITY           SKY/WX    TMP DP  RH WIND       PRES   REMARKS
PADUCAH        LGT RAIN  40  35  83 SW6       30.00R
HENDERSON      CLOUDY    39  27  60 E7        30.01S WCI  34
OWENSBORO      CLOUDY    42  26  53 S8        30.02S
HOPKINSVILLE   CLOUDY    45  31  57 SE6       29.97F
BOWLING GREEN  CLOUDY    45  22  40 S6        30.02F
GLASGOW        MOCLDY    43  22  42 CALM      30.01F
$$

KYZ024-025-028>034-038-045-046-053-262300-
NORTH CENTRAL KENTUCKY

CITY           SKY/WX    TMP DP  RH WIND       PRES   REMARKS
LOUISVILLE/SDF CLOUDY    42  28  57 CALM      30.02F
LOUISVILLE/LOU CLOUDY    42  26  53 CALM      30.03F
FORT KNOX      CLOUDY    41  27  57 SE5       30.00S
$$

KYZ035>037-039>044-047>052-055>060-089>105-262300-
NORTHEAST KENTUCKY

CITY           SKY/WX    TMP DP  RH WIND       PRES   REMARKS
LEXINGTON      PTCLDY    41  27  57 CALM      30.02S
COVINGTON      MOCLDY    37  24  59 CALM      30.03F
FRANKFORT      PTCLDY    40  28  62 NW3       30.02S
$$

KYZ054-064>069-076>088-106>120-262300-
SOUTHEAST KENTUCKY

CITY           SKY/WX    TMP DP  RH WIND       PRES   REMARKS
JACKSON        MOCLDY    45  26  47 NW6       30.00R
LONDON         CLEAR     44  23  43 NW7       30.01F
SOMERSET       PTCLDY    41  23  48 CALM      30.03F
MIDDLESBORO    NOT AVBL
MONTICELLO     PTCLDY    45  24  43 CALM      30.04F
$$




USA.gov is the U.S. government's official web portal to all federal, state and local government web resources and services.